User: anonymous   Login
Location: Unspecified
(0.0000°N, 0.0000°E)
Time: 23:58:26
(UTC+00:00)
Language:

GEOEYE 1 - Orbit

View from above orbital plane
View from above orbital plane
View from above satellite
View from above satellite

Ground track
Ground track

The orbit data is extracted from the following two-line orbital elements,

1 33331U 08042A   14327.47321897  .00001138  00000-0  22473-3 0  8291
2 33331 098.1295 040.3961 0008461 335.4424 024.6372 14.64288863332020
Epoch (UTC): 23 November 2014 11:21:26
Eccentricity: 0.0008461
inclination: 98.1295°
perigee height: 673 km
apogee height: 685 km
right ascension of ascending node: 40.3961°
argument of perigee: 335.4424°
revolutions per day: 14.64288863
mean anomaly at epoch: 24.6372°
orbit number at epoch: 33202

The dashed part of the orbit path shows where the satellite is in the earth's shadow,  

DLR